Stations météo

réclame
Mon MeteoGroup
Waldmünchen, Allemagne (10782): Température de l'air & dewpoint: 04.12.2019 16:00:00 - 10.12.2019 16:00:00 (CET)Waldmünchen, Allemagne (10782): Température de l'air 5cm & Température de l'air -5cm: 04.12.2019 16:00:00 - 10.12.2019 16:00:00 (CET)Waldmünchen, Allemagne (10782): Température de l'air -20cm & Température de l'air -100cm: 04.12.2019 16:00:00 - 10.12.2019 16:00:00 (CET)Waldmünchen, Allemagne (10782): Vitesse du vent & gusts: 04.12.2019 16:00:00 - 10.12.2019 16:00:00 (CET)Waldmünchen, Allemagne (10782): Direction du vent: 04.12.2019 16:00:00 - 10.12.2019 16:00:00 (CET)Waldmünchen, Allemagne (10782): reduced air pressure: 04.12.2019 16:00:00 - 10.12.2019 16:00:00 (CET)Waldmünchen, Allemagne (10782): visibility: 04.12.2019 16:00:00 - 10.12.2019 16:00:00 (CET)Waldmünchen, Allemagne (10782): Ensoleillement: 04.12.2019 16:00:00 - 10.12.2019 16:00:00 (CET)Waldmünchen, Allemagne (10782): Quantités de précipitations: 04.12.2019 16:00:00 - 10.12.2019 16:00:00 (CET)
Date & Time tt [°C] td [°C] tt 5cm [°C] tt -5cm [°C] tt -20cm [°C] tt -100cm [°C] ff [km/h] ff [knt] fx [km/h] fx [knt] dd ppp [hPa] vv [km] sd [min] rr [mm]
10.12.2019 16:00:00 2,0 -0,2 1,7 2,9 3,7 7,1 7 4 18 10 WSW 1028,0 29 0 0,0
10.12.2019 15:00:00 2,2 0,1 2,3 3,3 3,6 7,1 11 6 16 9 WSW 1027,7 26 0 0,0
10.12.2019 14:00:00 2,0 -0,4 2,0 3,4 3,5 7,1 10 5 22 12 WNW 1027,8 29 0 0,0
10.12.2019 13:00:00 2,5 -0,5 3,2 3,8 3,4 7,1 13 7 24 13 W 1027,5 34 1 0,0
10.12.2019 12:00:00 2,3 -0,2 2,9 3,3 3,4 7,1 14 8 24 13 WNW 1027,4 40 0 0,0
10.12.2019 11:00:00 1,7 -0,5 2,4 2,6 3,4 7,1 17 9 27 15 W 1027,2 29 0 0,0
10.12.2019 10:00:00 1,5 -0,2 1,6 1,9 3,4 7,1 19 10 25 14 W 1026,7 28 0 0,0
10.12.2019 09:00:00 1,1 -0,6 0,8 1,3 3,6 7,1 16 8 22 12 W 1025,6 26 0 0,0
10.12.2019 08:00:00 0,4 -0,4 -0,3 1,3 3,7 7,1 6 3 13 7 WNW 1024,7 26 0 0,1
10.12.2019 07:00:00 1,2 -0,8 0,4 1,6 3,8 7,1 5 3 16 9 NW 1023,4 33 0 0,0
10.12.2019 06:00:00 1,8 -1,0 0,4 1,9 3,9 7,1 6 4 15 8 NW 1021,9 34 0 0,0
10.12.2019 05:00:00 1,8 0,0 0,9 2,0 4,1 7,1 10 5 17 9 NW 1020,5 39 0 0,0
10.12.2019 04:00:00 2,4 0,0 1,2 2,6 4,1 7,1 5 3 21 11 NW 1019,0 46 0 0,0
10.12.2019 03:00:00 2,7 0,4 1,7 3,0 4,2 7,1 6 4 34 18 N 1017,3 75 0 1,2
10.12.2019 02:00:00 3,5 2,0 3,0 3,4 4,2 7,1 12 7 20 11 W 1015,2 7 0 0,7
10.12.2019 01:00:00 3,5 2,5 3,3 3,4 4,2 7,1 8 4 12 6 WSW 1014,0 13 0 0,0
10.12.2019 00:00:00 3,5 2,1 3,2 3,4 4,3 7,1 6 4 14 8 W 1012,9 54 0 0,0
09.12.2019 23:00:00 3,0 2,1 2,9 3,4 4,3 7,1 5 3 11 6 S 1011,6 66 0 0,0
09.12.2019 22:00:00 3,3 1,9 2,9 3,5 4,4 7,1 8 5 12 7 W 1010,8 38 0 1,4
09.12.2019 21:00:00 3,6 2,7 3,3 3,6 4,4 7,1 7 4 9 5 SW 1009,3 23 0 0,0
09.12.2019 20:00:00 3,8 2,2 3,1 3,6 4,5 7,1 6 4 32 17 WSW 1008,2 75 0 0,5
09.12.2019 19:00:00 5,1 1,8 4,4 3,5 4,5 7,1 5 3 16 9 SW 1006,9 66 0 0,0
09.12.2019 18:00:00 4,5 1,4 3,7 3,5 4,6 7,1 14 8 35 19 WSW 1006,0 54 0 0,0
09.12.2019 17:00:00 5,7 1,5 3,8 3,9 4,6 7,1 26 14 36 20 SSW 1005,0 73 0 0,1
09.12.2019 16:00:00 6,2 2,1 4,6 4,8 4,6 7,1 21 11 35 19 SSW 1004,7 29 8 0,0
09.12.2019 15:00:00 6,5 1,9 6,1 5,2 4,5 7,1 16 8 34 18 SSW 1004,3 71 5 0,0
09.12.2019 14:00:00 6,3 1,9 6,0 5,1 4,4 7,1 19 10 34 19 SSW 1004,6 69 0 0,0
09.12.2019 13:00:00 6,3 1,5 6,1 5,4 4,3 7,1 24 13 39 21 SSW 1004,7 65 14 0,0
09.12.2019 12:00:00 5,7 2,1 5,8 4,6 4,3 7,1 18 10 38 21 S 1005,6 55 0 0,0
09.12.2019 11:00:00 5,2 2,0 4,8 4,2 4,3 7,1 26 14 40 21 S 1005,8 50 0 0,0
09.12.2019 10:00:00 4,8 2,4 4,4 3,8 4,3 7,1 24 13 33 18 S 1006,1 55 0 0,0
09.12.2019 09:00:00 4,9 2,0 3,9 3,8 4,4 7,1 18 10 34 18 SSW 1006,2 27 0 0,0
09.12.2019 08:00:00 5,1 1,8 4,4 3,6 4,5 7,1 20 11 27 15 SSW 1005,9 53 0 0,0
09.12.2019 07:00:00 4,8 2,2 3,4 3,5 4,5 7,1 11 6 20 11 SSW 1005,9 53 0 0,0
09.12.2019 06:00:00 5,1 2,7 4,0 4,3 4,6 7,1 14 7 28 15 SW 1005,9 57 0 0,0
09.12.2019 05:00:00 5,6 2,7 5,0 4,5 4,6 7,1 23 13 33 18 SW 1006,2 54 0 0,0
09.12.2019 04:00:00 5,3 3,2 4,3 4,7 4,5 7,1 14 8 29 15 WSW 1006,0 59 0 0,0
09.12.2019 03:00:00 6,2 3,9 5,5 5,1 4,5 7,1 14 8 32 18 WSW 1005,6 74 0 0,1
09.12.2019 02:00:00 6,9 5,4 6,2 5,3 4,4 7,1 30 16 66 36 W 1005,7 10 0 0,6
09.12.2019 01:00:00 7,0 5,4 6,5 5,1 4,4 7,1 16 9 30 16 SW 1004,6 50 0 0,0
09.12.2019 00:00:00 6,6 5,2 6,1 5,0 4,3 7,1 16 9 34 18 SW 1005,1 54 0 0,0
08.12.2019 23:00:00 6,3 5,0 5,8 4,9 4,2 7,1 15 8 29 16 SW 1005,4 3,6 0 0,3
08.12.2019 22:00:00 6,8 4,4 5,7 4,8 4,2 7,1 18 10 34 18 SSW 1006,0 13 0 0,9
08.12.2019 21:00:00 6,9 3,8 6,2 4,7 4,1 7,1 13 7 23 12 SSW 1006,4 71 0 0,0
08.12.2019 20:00:00 6,7 3,9 5,6 4,7 4,1 7,1 16 9 27 14 SSW 1007,2 21 0 0,1
08.12.2019 19:00:00 6,8 3,4 5,6 4,7 4,0 7,1 20 11 32 17 S 1007,8 24 0 0,0
08.12.2019 18:00:00 6,9 3,4 6,3 4,6 4,0 7,1 20 11 35 19 S 1008,3 66 0 0,0
08.12.2019 17:00:00 6,9 3,4 6,3 4,7 3,9 7,1 22 12 37 20 SSW 1008,7 75 0 0,0
08.12.2019 16:00:00 6,7 3,2 6,2 4,7 3,8 7,1 18 10 34 19 S 1009,1 75 0 0,0
08.12.2019 15:00:00 6,5 2,9 6,0 4,8 3,7 7,1 18 10 31 17 S 1010,2 62 0 0,0
08.12.2019 14:00:00 6,3 2,7 6,0 5,0 3,6 7,1 19 10 37 20 SSW 1011,2 75 0 0,0
08.12.2019 13:00:00 6,4 2,5 6,3 5,1 3,4 7,2 30 16 43 23 SSW 1012,1 75 0 0,0
08.12.2019 12:00:00 6,0 2,7 6,2 4,8 3,3 7,2 20 11 37 20 SSW 1013,1 75 0 0,0
08.12.2019 11:00:00 5,6 2,7 5,7 4,3 3,2 7,2 24 13 41 22 SSW 1013,8 74 0 0,0
08.12.2019 10:00:00 5,5 2,4 5,4 3,8 3,1 7,2 27 15 40 21 SSW 1014,5 67 0 0,0
08.12.2019 09:00:00 5,1 2,5 4,8 3,4 3,0 7,2 26 14 43 23 SSW 1014,9 68 0 0,0
08.12.2019 08:00:00 4,9 2,3 4,5 3,3 2,9 7,2 22 12 42 23 SSW 1014,9 70 0 0,0
08.12.2019 07:00:00 5,1 2,3 4,7 3,2 2,9 7,2 26 14 41 22 SSW 1015,3 67 0 0,0
08.12.2019 06:00:00 5,1 2,5 4,7 3,2 2,8 7,2 26 14 39 21 SSW 1015,5 50 0 0,0
08.12.2019 05:00:00 5,0 2,7 4,5 3,1 2,7 7,2 21 11 31 17 SSW 1016,4 71 0 0,0
08.12.2019 04:00:00 4,5 3,0 4,0 3,0 2,6 7,2 16 8 36 19 WSW 1017,2 61 0 0,0
08.12.2019 03:00:00 5,0 3,4 4,5 3,2 2,5 7,2 22 12 34 18 SW 1017,4 58 0 0,0
08.12.2019 02:00:00 4,9 3,3 4,3 3,0 2,4 7,2 18 10 32 17 WSW 1018,1 50 0 0,0
08.12.2019 01:00:00 4,9 3,4 4,4 2,9 2,2 7,2 18 10 32 17 WSW 1018,4 52 0 0,0
08.12.2019 00:00:00 5,1 3,4 4,5 2,7 2,1 7,3 22 12 32 18 SW 1018,9 47 0 0,0
07.12.2019 23:00:00 5,0 3,4 4,1 2,3 2,0 7,3 21 12 31 17 SW 1019,0 53 0 0,0
07.12.2019 22:00:00 4,1 3,2 3,5 1,7 1,9 7,3 12 7 21 12 WSW 1019,2 37 0 0,0
07.12.2019 21:00:00 4,4 3,5 3,7 2,0 1,7 7,3 13 7 24 13 WSW 1019,0 26 0 0,0
07.12.2019 20:00:00 4,5 3,4 3,6 1,8 1,5 7,3 16 9 27 14 WSW 1018,9 46 0 0,0
07.12.2019 19:00:00 4,7 3,3 3,8 1,4 1,4 7,3 16 9 26 14 WSW 1018,6 50 0 0,0
07.12.2019 18:00:00 5,0 3,5 4,2 0,6 1,3 7,3 21 11 29 15 WSW 1018,1 53 0 0,0
07.12.2019 17:00:00 5,2 3,7 4,4 0,4 1,2 7,3 18 10 29 16 SW 1017,7 64 0 0,3
07.12.2019 16:00:00 5,7 4,0 4,7 0,4 1,2 7,3 17 9 28 15 SW 1016,7 10 0 0,1
07.12.2019 15:00:00 5,8 4,1 5,2 0,3 1,2 7,3 21 12 33 18 WSW 1016,1 70 0 0,1
07.12.2019 14:00:00 5,8 4,1 4,9 0,1 1,2 7,3 18 10 31 17 SW 1016,1 42 0 0,0
07.12.2019 13:00:00 5,7 4,1 5,1 0,0 1,2 7,3 21 11 32 18 SW 1015,8 56 0 0,0
07.12.2019 12:00:00 5,7 4,1 5,1 -0,1 1,2 7,4 22 12 39 21 WSW 1015,7 25 0 0,0
07.12.2019 11:00:00 5,3 4,1 4,8 -0,1 1,2 7,4 24 13 38 21 SW 1015,6 40 0 0,4
07.12.2019 10:00:00 4,7 3,4 4,2 -0,1 1,2 7,4 15 8 30 16 SW 1015,4 26 0 0,0
07.12.2019 09:00:00 4,3 3,1 3,7 -0,1 1,2 7,4 14 7 40 22 WSW 1015,1 22 0 0,0
07.12.2019 08:00:00 4,4 3,2 3,5 -0,1 1,2 7,4 27 15 42 23 SW 1014,5 18 0 0,3
07.12.2019 07:00:00 4,0 2,6 3,1 -0,1 1,2 7,4 26 14 48 26 SW 1013,9 7 0 0,1
07.12.2019 06:00:00 3,6 2,2 2,8 -0,2 1,2 7,4 19 10 30 16 SW 1013,7 17 0 0,0
07.12.2019 05:00:00 3,0 1,7 2,2 -0,2 1,2 7,4 14 8 34 18 SW 1013,3 13 0 0,0
07.12.2019 04:00:00 2,1 1,1 1,5 -0,3 1,2 7,4 14 7 35 19 WSW 1013,8 11 0 0,2
07.12.2019 03:00:00 2,1 0,7 1,3 -0,3 1,2 7,4 14 8 28 15 SW 1014,0 11 0 0,9
07.12.2019 02:00:00 1,8 0,0 0,1 -0,5 1,2 7,4 12 6 21 11 SW 1014,4 9 0 1,4
07.12.2019 01:00:00 -0,8 -1,9 -0,1 -0,7 1,2 7,4 4 2 8 4 N 1015,9 8 0 0,1
07.12.2019 00:00:00 -2,8 -4,2 -3,9 -1,0 1,3 7,4 7 4 11 6 WNW 1017,0 11 0 0,0
06.12.2019 23:00:00 -2,9 -3,8 -4,1 -1,0 1,3 7,5 7 4 8 5 NNE 1017,3 7 0 0,0
06.12.2019 22:00:00 -3,2 -4,4 -4,9 -1,0 1,3 7,5 4 2 13 7 N 1017,9 8 0 0,0
06.12.2019 21:00:00 -3,2 -4,6 -5,2 -0,9 1,3 7,5 7 4 13 7 NW 1018,2 10 0 0,0
06.12.2019 20:00:00 -3,2 -4,8 -5,0 -0,8 1,4 7,5 8 4 12 7 WNW 1018,6 11 0 0,0
06.12.2019 19:00:00 -2,9 -4,6 -5,2 -0,6 1,4 7,5 8 4 11 6 WNW 1018,9 12 0 0,0
06.12.2019 18:00:00 -3,0 -4,8 -5,3 -0,4 1,4 7,5 7 4 11 6 WSW 1019,2 12 0 0,0
06.12.2019 17:00:00 -2,5 -4,2 -4,8 -0,2 1,4 7,5 3 2 14 8 SW 1019,3 11 0 0,0
06.12.2019 16:00:00 -1,4 -3,5 -2,4 -0,1 1,4 7,5 9 5 16 9 SW 1019,4 11 40 0,0
06.12.2019 15:00:00 -1,0 -3,1 -1,1 -0,1 1,4 7,5 11 6 18 10 S 1019,8 13 6 0,0
06.12.2019 14:00:00 -1,4 -3,1 -0,9 -0,2 1,4 7,5 9 5 19 11 S 1020,6 11 0 0,0
06.12.2019 13:00:00 -1,9 -3,6 -1,0 -0,2 1,4 7,5 11 6 20 11 SW 1021,6 11 0 0,0
06.12.2019 12:00:00 -2,8 -3,9 -1,6 -0,2 1,4 7,6 11 6 20 11 S 1022,5 8 0 0,0
06.12.2019 11:00:00 -2,8 -3,6 -1,9 -0,2 1,4 7,6 13 7 19 11 S 1023,3 4,7 0 0,0
06.12.2019 10:00:00 -3,0 -3,8 -2,3 -0,3 1,4 7,6 11 6 16 9 S 1023,5 4,7 0 0,0
06.12.2019 09:00:00 -3,0 -3,7 -2,5 -0,3 1,4 7,6 9 5 19 10 SSW 1023,5 3,6 0 0,0
06.12.2019 08:00:00 -3,1 -3,7 -2,7 -0,3 1,4 7,6 14 8 21 12 S 1023,3 2,3 0 0,0
06.12.2019 07:00:00 -2,9 -3,6 -2,5 -0,3 1,4 7,6 14 8 19 10 S 1023,2 2,6 0 0,0
06.12.2019 06:00:00 -2,9 -3,7 -2,5 -0,3 1,4 7,6 9 5 13 7 SSW 1023,3 3,9 0 0,0
06.12.2019 05:00:00 -3,0 -3,7 -2,6 -0,3 1,4 7,6 10 5 16 9 SW 1023,7 3,3 0 0,0
06.12.2019 04:00:00 -3,2 -4,0 -2,8 -0,3 1,5 7,6 13 7 18 10 SSW 1023,8 3,5 0 0,0
06.12.2019 03:00:00 -3,1 -4,0 -2,7 -0,3 1,5 7,6 11 6 15 8 SSW 1024,1 4,1 0 0,0
06.12.2019 02:00:00 -3,2 -4,0 -2,8 -0,2 1,5 7,6 10 6 19 11 SW 1024,3 4,0 0 0,0
06.12.2019 01:00:00 -3,2 -3,9 -2,8 -0,2 1,5 7,6 9 5 18 10 SSW 1024,6 2,6 0 0,0
06.12.2019 00:00:00 -3,1 -3,6 -2,7 -0,2 1,5 7,7 13 7 19 10 WSW 1024,9 0,3 0 0,0
05.12.2019 23:00:00 -3,2 -3,8 -2,7 -0,2 1,5 7,7 10 6 16 8 S 1025,0 1,9 0 0,0
05.12.2019 22:00:00 -2,9 -3,3 -2,5 -0,1 1,5 7,7 10 5 16 9 SSW 1025,4 0,8 0 0,0
05.12.2019 21:00:00 -2,9 -3,4 -2,4 -0,1 1,5 7,7 12 7 17 9 S 1025,8 1,3 0 0,0
05.12.2019 20:00:00 -2,8 -3,3 -2,3 -0,1 1,5 7,7 14 8 18 10 SW 1025,6 1,0 0 0,0
05.12.2019 19:00:00 -2,8 -3,5 -2,2 -0,1 1,5 7,7 8 5 16 9 S 1025,3 2,6 0 0,0
05.12.2019 18:00:00 -2,7 -3,4 -2,0 -0,1 1,5 7,7 7 4 13 7 SSW 1025,2 2,8 0 0,0
05.12.2019 17:00:00 -2,4 -3,3 -2,0 -0,1 1,5 7,7 5 3 9 5 WSW 1025,1 3,6 0 0,0
05.12.2019 16:00:00 -2,2 -3,2 -1,6 -0,1 1,5 7,7 8 4 10 6 W 1025,3 4,0 0 0,0
05.12.2019 15:00:00 -1,9 -2,9 -1,3 -0,2 1,5 7,7 7 4 17 9 SW 1024,8 4,0 0 0,0
05.12.2019 14:00:00 -2,1 -3,3 -1,3 -0,2 1,5 7,7 11 6 17 9 WSW 1024,9 4,8 0 0,0
05.12.2019 13:00:00 -2,2 -3,4 -1,0 -0,2 1,6 7,7 12 6 17 9 WSW 1025,1 4,5 3 0,0
05.12.2019 12:00:00 -2,0 -3,5 -1,2 -0,3 1,6 7,8 10 5 16 8 WSW 1025,6 6 0 0,0
05.12.2019 11:00:00 -2,4 -3,9 -1,5 -0,3 1,6 7,8 2 1 7 4 NNE 1025,8 6 0 0,0
05.12.2019 10:00:00 -3,7 -4,8 -2,5 -0,5 1,7 7,8 3 2 5 3 N 1025,9 5 0 0,0
05.12.2019 09:00:00 -5,0 -6,0 -5,6 -0,7 1,7 7,8 0 0 6 3 N 1026,1 4,9 0 0,0
05.12.2019 08:00:00 -5,6 -6,5 -5,6 -0,7 1,7 7,8 6 3 7 4 ENE 1026,3 6 0 0,0
05.12.2019 07:00:00 -5,6 -6,6 -7,5 -0,6 1,8 7,8 3 2 4 2 ESE 1025,7 8 0 0,0
05.12.2019 06:00:00 -5,0 -5,8 -7,0 -0,4 1,8 7,8 2 1 5 3 NNW 1025,1 9 0 0,0
05.12.2019 05:00:00 -4,7 -5,6 -5,9 -0,2 1,8 7,8 3 2 5 3 SSE 1024,9 13 0 0,0
05.12.2019 04:00:00 -4,6 -5,8 -6,3 -0,1 1,9 7,8 3 1 8 5 W 1024,3 11 0 0,0
05.12.2019 03:00:00 -3,8 -5,0 -5,6 0,0 1,9 7,8 4 2 6 3 SW 1024,1 11 0 0,0
05.12.2019 02:00:00 -2,8 -4,6 -4,8 0,1 1,9 7,8 4 2 8 4 ESE 1023,5 17 0 0,0
05.12.2019 01:00:00 -3,7 -5,3 -5,3 0,2 1,9 7,8 5 3 8 5 WSW 1023,9 13 0 0,0
05.12.2019 00:00:00 -2,5 -4,4 -4,8 0,3 1,9 7,8 4 2 10 6 SSE 1023,7 20 0 0,0
04.12.2019 23:00:00 -1,4 -4,4 -3,3 0,3 2,0 7,8 6 4 35 19 E 1023,2 22 0 0,0
04.12.2019 22:00:00 0,4 -4,2 -0,8 0,3 2,0 7,9 21 11 30 16 NE 1022,8 30 0 0,0
04.12.2019 21:00:00 0,7 -4,0 -0,7 0,4 2,0 7,9 21 11 35 19 NE 1023,0 31 0 0,0
04.12.2019 20:00:00 0,7 -3,8 -0,6 0,4 2,0 7,9 20 11 36 19 NE 1023,3 32 0 0,0
04.12.2019 19:00:00 1,1 -3,4 -0,2 0,4 2,0 7,9 21 11 32 17 NE 1023,2 30 0 0,0
04.12.2019 18:00:00 1,6 -3,4 0,3 0,3 2,0 7,9 23 12 35 19 NE 1023,0 33 0 0,0
04.12.2019 17:00:00 1,8 -3,2 0,5 0,3 2,0 7,9 21 12 36 19 NE 1022,8 35 0 0,0
04.12.2019 16:00:00 2,2 -3,0 1,3 0,3 2,0 7,9 25 13 41 22 NE 1023,0 32 51 0,0

tt = Température de l'air
td = dewpoint
tt 5cm = Température de l'air 5cm
tt -5cm = Température de l'air -5cm
tt -20cm = Température de l'air -20cm
tt -100cm = Température de l'air -100cm
ff = Vitesse du vent
fx = gusts
dd = Direction du vent
ppp = reduced air pressure
vv = visibility
sd = Ensoleillement
rr = Quantités de précipitations

stations d'obs. à proximité